CAPE
2233 2234 2015 1980 1926 2021 1496 1488 1741 1741 1680 2063 2645 2221 2164 2642 2570 2372 2536 2947 3246 3556 3769 3825 4278 4345 4036 4009 3752 3541 3481 3466 3338 3182 2968 2914 2691 2360 2325 2196 2036 2176 1935 1802 1488 1461 1466 1078 970 828 695 563 510 471 394 227 129 64 70 76 66 105 79
2005 2148 2046 2018 2077 2085 1636 1549 1832 1827 2091 2337 2537 2384 2056 2505 2882 2378 2630 3505 4003 4238 3856 3619 4362 4706 4583 4604 4136 3926 3809 3768 3671 3478 2987 2883 2934 2875 2502 2565 2254 2186 2304 2017 1677 1568 1280 986 884 824 648 587 479 486 361 293 173 105 66 82 131 182 221
1795 1836 2016 2026 2019 1770 1934 1834 2056 2094 2149 1954 1906 2118 2309 2556 3082 3140 2948 3505 4348 4648 4026 3781 4339 4552 4574 4738 4513 4191 4068 3961 3734 3633 3197 2710 2870 2741 2638 2491 2599 2232 2420 2168 1913 1612 1409 1085 958 839 695 552 538 456 398 336 264 142 97 116 88 109 269
1747 1754 1924 2176 2176 2096 2075 2014 2219 2070 1710 1722 1812 1984 2410 2694 3161 3683 3614 3712 4145 4437 4176 3754 4315 4845 4810 4841 4808 4506 4528 4656 4037 3472 3128 2763 2604 2528 2459 2756 3082 2221 2520 2370 2000 1690 1312 1067 1025 818 651 647 620 525 421 314 218 183 125 137 116 86 110
1649 1660 1740 2095 2186 2244 2289 2192 2283 2180 1426 1381 1833 2190 2495 3050 3396 3720 3957 3785 3186 3603 3870 4020 3913 4563 5182 5322 5104 4663 4683 4680 4526 3930 3373 2986 2612 2646 2806 2624 3059 2208 2349 2644 2201 2040 1476 1122 1012 854 875 786 780 710 506 320 200 263 216 184 164 134 126
1610 1766 1720 1830 2018 2368 2495 2240 1875 1628 1262 1132 1362 2167 2572 2936 3004 2880 3469 3894 3469 2992 3942 4024 3716 4516 5152 5058 4908 5018 5036 5054 4728 4440 3985 3730 3590 3351 3299 3403 3179 3258 2935 2977 2408 2000 1878 1363 810 932 1010 930 751 599 486 380 302 267 338 295 299 138 100
1489 1914 1879 1924 1981 2260 2549 2258 1578 1096 1352 1186 1305 2137 2460 2274 2566 2437 2586 3182 3436 3258 3572 3834 3998 4416 5130 4957 4981 5011 5189 4906 4826 4541 4436 4533 4508 4105 3738 3841 3584 3187 3020 2662 2205 1758 1796 1524 1132 1212 1076 854 753 620 545 494 312 165 175 165 183 232 232
1516 1922 2140 2169 2164 2024 2048 2238 1836 1211 1359 1456 1363 1895 2478 2096 2164 2321 2347 2530 3177 3078 3283 3364 3952 4405 5149 5116 4920 5013 5155 5074 5138 4981 4878 4646 4449 4128 4035 3528 2987 2698 2575 2167 2057 1806 1678 1688 1467 1290 1130 842 847 775 569 511 391 75 50 62 156 241 209
1806 2281 2410 2282 2246 2003 1872 2023 2154 1691 1561 1926 1848 2111 2458 2462 2135 2314 2452 2374 2966 3320 3235 3070 3306 4320 5332 5111 4893 4932 5204 5157 4914 4684 4572 4447 4333 3689 3101 2887 2450 2252 2106 1466 1186 1356 1284 1370 1261 1530 1541 1290 1124 1012 805 542 319 160 22 78 245 293 239
2103 2550 2829 2458 2140 1913 1957 1823 2135 2714 2501 2854 2767 2744 2767 2932 2860 2499 2651 2839 3008 3475 3504 3313 2995 3988 5094 5072 4926 5118 5238 4663 4608 4352 4007 3822 3470 3096 2659 2358 1980 1966 1874 896 466 764 731 831 916 996 1162 1132 1165 1166 845 610 453 200 89 206 328 344 293
2180 2568 2668 2296 2195 2068 1846 1652 2043 2867 3078 3605 3464 3058 3150 3164 3313 2949 3005 3194 3180 3381 3552 3578 3113 3128 4574 4932 4798 5064 5148 4745 4258 3984 3784 3195 2842 2618 2003 1930 2554 2031 1209 426 410 468 676 680 652 768 977 1060 968 1022 817 475 440 378 275 307 351 401 286
3355 2820 3018 2760 2413 2220 2162 2604 3048 3500 3746 4125 3870 3455 3630 3808 3647 3491 3570 3725 3581 3508 3707 3751 3603 3141 3750 4565 4648 5308 4702 3889 3480 3356 2674 2685 2496 1930 1109 1405 1599 2130 1340 365 379 238 250 332 465 394 590 830 982 992 808 661 501 465 524 366 372 365 358
3150 3000 3042 2699 2747 2706 3122 3474 3819 4148 4556 4498 3934 3834 3872 3907 3889 3771 4034 4070 3781 3801 3956 4083 3989 3888 3586 4255 4754 5533 4548 3618 3186 2870 2741 2844 2446 1282 892 700 389 430 704 244 36 97 358 946 670 456 692 657 741 820 714 666 558 569 737 690 490 430 520
2481 2753 2762 2968 3058 3114 3456 3956 4520 4906 4946 4538 4329 4378 4374 4206 3905 3960 4262 4252 3996 3858 3984 4140 4274 4310 4425 4885 4613 5520 4199 3437 3301 2873 2764 2470 2892 1048 177 214 131 375 686 287 205 439 720 208 0 0 263 522 711 679 644 662 692 740 840 1028 729 602 603
2594 2415 2746 2793 3293 3668 4033 4419 4675 4731 4824 4684 4394 4484 4507 4518 4410 4397 4495 4310 4256 3985 4020 4214 4545 4872 4858 4958 4793 4535 3636 3249 2992 2762 2527 2620 2318 804 140 83 116 427 619 692 394 280 215 0 66 200 390 660 772 706 707 846 814 819 1125 1209 1027 932 774
2552 2494 2468 2576 3087 3499 3880 4120 4681 5027 5070 5037 4720 4842 4576 4659 4772 4661 4669 4536 4441 4337 4082 4235 4590 4962 4578 4334 3856 3488 3471 3212 2852 2542 2374 2430 2298 1183 455 176 320 735 662 458 259 83 38 0 0 214 368 573 678 742 849 852 820 1078 795 1000 1324 1328 1202
2517 2438 2412 2616 3040 3318 3808 4023 4357 4896 5008 5070 4991 5011 4852 5014 4948 4842 4504 4434 4430 4710 4360 4364 4800 5044 4647 4016 3455 3216 2994 2775 2606 2280 2168 2218 2260 2040 1546 1198 534 126 318 322 132 1 0 0 0 90 354 422 731 900 942 1010 955 667 602 619 654 1165 1264
2569 3032 2754 2677 2926 3216 3668 3634 4175 4788 4980 4949 4992 5159 5153 5236 5149 4972 4489 4566 4538 4596 4539 4508 4844 4715 4722 4387 3788 3641 3499 3279 2943 2852 2789 2720 2638 2361 1724 1346 784 512 622 514 249 103 70 63 104 284 351 512 769 580 462 924 700 370 364 358 308 276 781
2845 3148 3272 3203 3214 3335 3419 3434 4306 4775 4616 4555 4716 5132 5044 5270 5101 5205 4948 4907 4738 4635 4682 4634 4600 4465 4676 4315 3712 3500 3356 3090 2938 2839 2734 2615 2408 2146 1800 1586 1064 858 682 741 686 444 286 150 375 557 637 716 646 320 268 724 548 273 258 256 234 194 223
2037 2812 3167 3188 3244 3216 3259 3554 3708 3888 4035 4346 4602 4532 4646 4936 5000 5128 4874 4758 4762 4652 4775 4828 4688 4350 4464 3816 3212 3066 3051 3070 2958 2795 2626 2367 2124 2020 1838 1560 1080 656 478 440 557 586 548 577 616 678 887 828 669 504 649 882 511 223 192 188 216 332 383
2270 2498 2541 2954 3426 3166 3089 2912 3124 3595 3662 3746 3620 4060 4489 4597 4778 4866 4616 4815 4650 4760 4903 4855 4718 4640 4160 3442 3032 3021 3168 3297 3073 2874 2686 2470 2157 1930 1730 1303 1095 858 634 453 626 686 654 674 821 689 806 860 457 756 956 776 269 166 98 178 224 180 307
1428 2011 2117 2548 2895 3144 3156 3062 3338 3333 3488 3538 3984 3886 3898 4045 4186 4178 4350 4583 4820 4823 4942 4959 4752 4131 3875 3332 2938 3145 3267 3272 3137 2904 2708 2478 2166 1876 1480 1148 1015 913 874 612 546 462 542 700 630 714 726 531 458 585 960 466 134 97 117 135 114 153 303
1220 1738 1919 2351 2320 3037 3143 3034 3086 3067 3089 3227 3438 3494 3416 3474 3384 3354 3570 4199 4675 5068 5039 5002 4617 4093 3650 3146 2736 3072 3166 3204 3094 2930 2522 2371 2258 1890 1308 986 1002 1198 1237 961 516 607 570 588 527 595 758 646 702 639 595 576 288 84 95 135 225 252 803
1403 2249 2370 2580 3291 3195 2925 2553 2336 2650 2670 3216 3009 2687 2596 2758 3049 3508 3937 4376 4722 4732 4816 4873 4347 3722 3386 2896 2387 2825 2977 2917 2727 2696 2370 2287 2205 1754 1256 1300 1385 1368 1234 1045 732 580 596 591 614 738 726 497 597 533 664 553 484 42 81 116 123 434 940
1026 1684 2244 2600 2510 2254 2135 2430 2715 2719 3130 3228 2547 2930 3049 3382 3749 4084 4475 4489 4580 4712 4664 4373 4040 3530 3235 2908 2310 2464 2516 2486 2384 2241 2251 2224 2128 1529 1219 1223 1217 1178 1163 1061 972 894 911 608 459 589 642 466 334 282 149 131 546 130 5 68 80 489 1173
1861 1999 2149 2370 2294 2735 3316 3289 3113 3194 3318 3140 3988 4078 4202 4239 4384 4406 4542 4428 4449 4349 4159 4035 3808 3560 3186 2668 2362 2146 2206 2004 1862 1986 2056 2106 1872 1520 1030 898 902 929 990 934 887 766 619 505 498 412 449 377 302 280 164 28 528 576 63 9 22 113 985
2221 2395 2607 2844 3056 3104 3641 3556 3139 2342 2278 4412 4520 4412 4748 4660 4607 4558 4493 4303 3987 3764 3713 3764 3608 3225 2909 2567 2186 2072 1916 1941 1812 1840 2030 2171 1827 1222 847 687 866 859 847 664 533 600 487 290 216 287 354 167 86 64 40 18 13 1500 204 44 37 46 111
2531 2725 2945 3147 3196 2547 1822 1592 2391 2774 3757 4720 4670 4748 4840 4776 4790 4698 4227 3867 3507 3379 3583 3583 3496 3173 2782 2494 2140 2120 1940 1860 1833 1910 1958 1966 1950 1375 728 540 499 373 324 200 194 210 90 233 202 102 56 64 43 1 0 798 836 400 326 132 54 18 0
1988 1887 2096 2288 2296 1882 1516 2035 2579 3208 4002 4126 4220 4285 4560 4497 4817 4438 4152 3960 3623 3524 3756 3596 3419 3137 2776 2464 2160 2130 2279 2074 1726 1624 1779 1686 1622 1334 617 383 205 188 126 55 55 124 202 208 125 167 156 172 170 35 1204 1566 406 90 141 44 26 38 40
1032 966 663 563 574 840 1820 3755 4188 3931 3559 3267 3020 3367 3796 4922 4794 4554 4510 4372 4036 3838 3713 3532 3415 3060 2614 2239 2128 2258 2066 1896 1555 1688 1658 1573 1476 1126 482 346 202 191 122 90 122 272 358 259 120 56 48 50 42 650 1579 1414 1251 276 49 50 21 76 100
550 512 479 494 423 650 1030 2782 3628 3162 2728 2692 3202 3963 4645 4714 4477 4452 4832 4357 3729 3665 3516 3396 3156 2566 2142 2196 2100 1762 1840 1731 1804 1688 1518 1364 1180 708 434 305 106 209 285 266 338 370 226 130 80 130 68 6 75 780 1354 1288 1184 998 251 106 109 125 111
1727 904 662 1033 2106 1552 785 1171 1370 1900 2293 2436 2650 2828 3517 3517 3453 4341 3527 3174 3074 3241 3402 3230 2832 2436 2125 2033 1730 1765 1781 1677 1562 1462 1300 1201 722 504 436 303 270 381 506 336 234 248 112 176 98 225 188 324 513 772 1174 1228 973 929 810 227 163 109 28
2215 2391 2134 1891 2445 2194 1069 764 1124 1541 1826 2022 1974 1812 1950 2619 3296 3473 3168 3163 3243 3037 2856 2731 2555 2240 2094 1870 1760 1448 1277 1536 1679 1664 1350 973 790 656 555 417 501 524 694 529 418 411 391 377 430 522 296 352 554 860 1038 1062 1040 910 773 375 12 0 0
2440 2338 2240 2307 2520 2447 1718 1049 1036 1500 2046 2504 2407 2362 2214 2314 2565 2787 2838 2796 2762 2710 2514 2346 2139 1960 1953 1799 1589 1364 1596 1727 1734 1711 1630 1330 998 844 650 460 509 560 644 613 508 464 421 471 404 250 156 227 316 786 1106 1046 1267 1056 760 392 351 259 290
2177 2499 2486 2240 2394 2351 2000 1720 1568 1752 2081 2267 2400 2499 2812 2801 2742 2769 2734 2743 2619 2387 2008 1784 1818 1946 1716 1568 1638 1791 1867 1858 1739 1412 1330 1278 1075 886 732 714 764 656 599 1220 922 826 586 468 152 215 142 303 496 440 562 312 617 296 1200 1396 740 1872 320
1457 1597 2049 2219 2249 2352 2448 2267 2094 2029 2154 2314 2376 2434 2468 2466 2339 2311 2432 2641 2716 2631 2596 2445 2278 2126 2054 2017 2071 2069 1825 1630 1351 1227 1241 1147 862 720 476 173 0 0 0 101 0 0 0 0 429 268 249 76 48 791 518 584 1385 750 266 78 73 0 0
998 1014 1198 1736 2049 2081 2374 2700 2431 2388 2366 2382 2363 2194 2148 2240 2151 2158 2196 2629 2733 2582 2490 2400 2166 2028 1804 1743 1590 1511 1419 1311 947 966 911 829 634 531 376 0 0 0 0 0 0 0 0 0 0 111 0 0 412 19 166 0 84 268 44 0 0 0 0
100 502 641 713 1232 2035 2441 2519 2337 2402 2324 2317 2318 2201 2195 2010 2138 2166 2044 2400 2490 2431 2258 2044 1714 1469 1562 1403 1240 1145 1134 1356 1424 1441 1368 1161 1054 635 465 277 149 0 0 0 0 0 0 0 0 0 0 0 460 217 10 0 0 0 0 0 0 0 0
Wind_Speed
14 16 18 20 21 21 18 14 14 16 18 18 18 20 20 18 17 15 14 15 15 15 14 14 15 15 16 17 18 18 18 18 18 18 18 17 17 17 19 19 18 17 16 17 17 18 20 21 23 23 24 25 25 25 24 23 23 nan nan nan nan 23 nan
15 17 18 21 23 22 19 17 16 16 17 19 19 21 21 20 17 14 13 14 15 14 13 13 14 15 16 18 18 18 18 18 19 18 19 19 19 19 20 20 19 19 19 19 19 20 20 22 23 25 26 28 27 26 25 24 23 23 nan nan 23 24 24
12 14 16 19 19 19 21 20 20 20 20 21 22 23 22 20 18 15 13 13 14 14 13 13 14 15 16 18 18 17 17 18 19 20 21 21 21 20 20 20 22 22 22 23 23 23 24 25 27 28 28 27 27 27 26 25 24 24 nan 24 nan 23 24
8 9 13 18 18 20 25 25 26 25 24 25 26 26 23 21 19 16 14 13 13 14 14 14 15 16 16 17 16 16 18 20 21 22 22 22 21 21 20 22 25 25 27 28 27 26 28 31 32 31 31 28 26 26 27 25 25 25 24 24 23 nan 22
9 11 12 16 20 22 24 26 27 26 27 28 28 25 22 20 19 17 15 14 13 14 14 15 14 14 14 16 15 16 18 20 21 22 22 23 24 25 25 26 28 27 29 31 31 30 32 35 35 34 33 30 28 27 27 27 25 25 25 25 24 23 22
9 12 12 15 20 23 23 26 28 29 29 30 30 26 22 22 19 18 15 14 13 12 13 12 12 12 13 15 14 16 17 19 20 23 25 28 28 28 29 29 30 31 33 34 34 34 35 37 37 37 35 33 30 28 28 27 26 27 28 28 28 26 25
12 12 11 14 19 23 23 23 26 28 29 29 28 24 21 21 20 15 13 11 11 11 11 11 11 11 12 12 13 15 19 22 24 27 30 33 33 32 31 33 34 33 32 35 36 37 38 38 39 40 38 34 31 30 30 29 28 30 31 32 32 31 29
13 12 10 14 18 20 22 22 24 27 28 28 27 24 22 20 17 14 12 9 9 9 8 9 9 8 9 10 13 18 22 26 28 31 33 35 35 36 37 38 38 37 38 40 42 42 42 40 39 39 40 37 34 33 32 31 31 nan nan nan 35 34 34
13 11 10 14 17 18 20 22 23 26 28 30 29 23 20 18 15 13 12 10 8 8 8 8 7 7 8 11 14 20 23 27 30 31 34 35 35 37 39 42 41 40 43 42 42 47 43 36 35 38 40 40 38 37 35 33 34 36 nan nan 37 36 34
13 13 11 13 15 18 19 21 24 25 27 30 28 22 19 16 14 13 12 11 8 8 8 8 8 9 12 14 18 21 25 29 31 34 35 34 33 38 41 41 39 41 47 45 39 47 45 36 34 38 41 40 39 38 36 32 31 32 nan 38 37 35 34
15 14 13 13 14 16 20 21 24 25 27 30 29 23 19 17 16 15 13 10 8 7 8 8 10 12 15 18 20 23 28 33 35 35 31 31 37 43 43 41 41 42 46 48 45 44 38 35 35 39 40 40 37 36 35 32 29 30 35 39 37 35 34
16 16 16 16 14 16 19 20 22 25 28 31 30 25 20 18 17 15 12 9 8 8 9 10 13 15 17 18 21 25 30 32 34 36 36 38 46 52 48 48 48 45 48 53 45 36 33 36 36 37 38 39 37 32 30 29 26 28 34 37 37 38 37
15 16 17 18 17 17 19 20 23 26 29 32 30 26 21 19 17 15 13 12 10 10 11 12 15 18 19 22 24 30 33 38 40 39 40 41 47 51 53 52 52 52 53 54 nan nan 42 43 41 39 39 39 37 30 28 29 29 30 36 38 38 39 40
13 14 15 19 21 21 20 21 23 27 29 31 30 26 23 19 18 16 15 15 14 14 15 16 19 22 22 23 26 31 37 40 38 39 41 47 48 50 53 52 53 56 56 53 52 50 49 50 nan nan 39 37 35 32 31 35 37 38 41 43 42 40 40
10 13 16 18 20 24 23 22 23 26 28 29 29 27 25 22 20 19 18 19 19 18 18 20 22 24 24 28 32 36 39 43 43 43 46 46 48 49 50 nan 53 52 53 55 54 51 52 nan nan 41 38 37 36 34 34 37 40 42 45 47 46 42 39
9 14 15 18 18 22 25 24 26 26 27 28 28 27 27 24 22 22 22 22 22 21 22 23 24 25 28 35 40 42 46 49 51 52 52 53 51 49 50 51 54 54 53 55 55 nan nan nan nan 44 42 38 35 36 38 39 41 45 49 48 47 45 40
10 12 13 15 19 20 24 28 28 27 27 28 27 26 26 25 23 23 23 24 24 25 25 27 29 31 34 39 42 46 50 51 53 55 54 52 52 52 54 57 56 56 57 55 54 nan nan nan nan nan 42 40 40 42 43 43 43 47 48 48 47 44 38
16 15 13 15 20 21 25 29 28 27 27 27 27 26 26 26 25 25 26 28 28 28 29 30 32 33 34 37 42 46 50 51 53 53 52 50 49 50 53 57 58 60 61 61 61 59 nan nan 50 46 44 44 44 45 44 43 46 48 47 47 45 43 37
26 25 21 19 20 21 25 28 27 25 26 26 27 28 28 29 29 29 31 33 33 33 33 32 31 30 33 39 42 46 50 52 53 54 54 53 53 52 52 54 54 57 60 61 61 61 60 57 50 45 44 44 44 44 44 41 48 49 48 44 41 42 37
27 28 23 18 17 21 26 30 29 29 28 28 29 31 32 32 32 34 36 39 39 38 37 36 34 33 36 42 45 49 52 55 57 58 59 60 58 56 55 56 56 57 58 59 60 60 61 59 53 48 46 46 44 44 43 40 46 46 43 40 41 39 35
28 27 24 21 21 24 29 29 29 31 32 31 34 37 39 38 37 39 41 42 43 42 42 39 39 39 42 44 47 50 54 58 61 63 63 65 64 61 60 59 58 58 59 60 61 61 61 61 56 49 46 46 45 44 43 40 45 41 nan 39 38 36 30
27 24 22 22 23 29 31 29 28 31 34 38 42 41 41 43 42 42 43 44 45 44 44 44 44 44 44 45 48 51 55 59 61 63 64 65 64 64 63 61 59 59 59 59 60 60 61 60 56 50 45 44 45 43 42 39 43 nan 37 36 34 35 27
33 29 26 23 21 26 31 31 30 34 37 38 41 44 45 47 48 47 47 48 48 47 46 47 48 49 49 49 50 53 57 59 61 61 62 64 64 62 62 61 60 59 59 60 61 61 60 59 55 47 41 42 45 43 40 39 40 nan nan 34 34 32 26
37 36 33 29 31 34 37 35 33 37 39 41 46 50 51 52 55 54 51 52 52 51 50 50 49 51 52 54 55 56 58 59 59 59 61 62 62 61 61 61 61 61 60 61 63 61 59 58 54 45 39 41 44 41 38 37 41 nan nan 40 38 29 25
34 36 37 34 32 33 36 37 37 39 41 43 53 55 55 57 58 55 51 52 53 55 56 55 53 52 55 57 57 58 59 59 59 60 62 64 64 64 64 62 62 61 61 63 66 63 58 55 51 44 38 36 37 37 35 33 40 44 nan nan nan 27 21
39 39 38 37 37 39 43 44 42 41 45 50 55 57 58 60 59 57 55 54 55 58 59 58 55 53 54 58 58 59 59 59 60 61 65 67 67 66 65 64 64 63 64 67 66 58 53 54 51 43 34 32 33 35 34 nan 33 38 nan nan nan 27 21
40 39 40 41 43 43 44 45 47 49 52 55 57 58 59 60 61 60 58 57 58 60 61 60 55 53 55 58 60 60 59 59 61 64 66 68 67 66 66 66 66 67 69 69 64 57 54 53 47 39 34 31 nan nan nan nan nan 36 39 nan nan nan 24
44 47 49 48 46 46 49 50 52 53 54 54 56 58 59 60 62 61 60 58 60 61 60 59 57 56 57 60 63 63 60 61 63 64 67 69 67 66 68 70 70 70 69 65 61 57 nan 49 40 35 nan nan nan nan nan 34 35 37 39 37 nan nan nan
52 53 53 52 53 53 52 53 54 54 53 52 54 55 57 60 61 60 58 58 58 57 57 56 58 59 59 60 62 63 64 66 67 66 68 70 69 69 71 71 68 66 63 nan nan 56 50 41 37 35 35 35 36 nan 37 37 39 nan 42 nan nan nan nan
55 56 56 57 57 56 55 55 54 54 55 55 53 52 53 56 57 57 58 59 56 54 53 54 57 60 61 62 63 64 65 67 68 68 70 72 71 70 69 65 61 59 56 nan 50 47 42 39 37 nan nan nan nan 39 40 42 44 47 nan nan nan nan nan
57 58 58 59 59 56 55 53 53 54 55 54 54 53 51 51 55 59 62 62 60 59 55 52 55 60 63 66 66 66 66 67 66 68 69 70 68 66 62 57 53 51 48 45 42 40 39 38 nan 37 nan nan nan 42 44 47 46 45 47 46 43 40 38
58 58 58 59 58 56 54 53 52 53 52 51 51 51 51 51 54 59 60 58 58 55 51 51 57 62 66 67 66 66 66 68 67 67 66 64 60 56 51 48 45 44 42 40 40 40 39 39 nan 39 39 40 42 44 47 47 43 41 44 45 43 40 nan
56 57 57 57 55 53 52 51 51 50 50 50 50 49 49 52 54 56 54 52 52 52 50 54 60 64 65 65 63 63 64 65 64 63 60 56 52 48 44 43 41 41 40 39 39 39 38 38 39 40 41 43 44 45 46 44 42 41 42 42 nan nan nan
55 56 56 56 55 54 53 53 53 52 52 51 50 50 50 51 50 50 50 51 52 52 53 56 60 62 63 63 62 61 63 61 61 58 53 49 47 45 45 45 42 41 40 39 39 40 41 40 41 42 42 44 44 45 44 41 38 38 39 38 38 41 40
56 57 57 57 57 57 58 57 57 55 55 53 50 48 48 48 48 49 51 51 53 54 56 59 60 60 62 62 62 63 61 58 55 52 51 49 48 47 46 44 44 42 42 44 42 42 41 41 42 44 45 45 45 44 44 40 38 37 39 40 39 37 37
57 58 58 57 58 60 60 60 58 57 55 51 46 44 44 46 47 48 50 53 54 55 57 59 59 61 61 61 62 62 58 53 50 51 50 51 51 52 50 48 nan nan nan 48 nan nan nan nan 43 43 43 nan nan 42 38 40 42 49 49 nan nan nan nan
55 56 58 59 59 59 60 59 55 50 47 43 41 42 44 46 48 50 51 53 55 55 56 57 58 59 59 58 58 57 52 51 51 50 50 51 51 51 52 nan nan nan nan nan nan nan nan nan nan 43 nan nan 44 nan 47 nan nan 48 nan nan nan nan nan
nan 57 57 58 57 59 61 56 49 43 40 38 39 41 42 46 48 50 52 53 54 57 58 57 55 55 55 56 57 55 50 50 51 50 49 49 50 51 51 50 52 nan nan nan nan nan nan nan nan nan nan nan 42 43 nan nan nan nan nan nan nan nan nan
Wind_Direction
275 289 294 292 297 302 307 309 314 313 316 321 327 332 330 322 318 309 305 305 311 313 313 310 307 305 311 308 314 315 315 315 313 316 317 316 314 313 312 310 307 301 295 291 292 295 299 302 299 297 295 296 298 297 295 294 293 nan nan nan nan 279 nan
270 281 296 305 312 313 315 316 319 322 326 331 334 340 339 336 329 327 315 308 310 312 311 309 310 311 310 310 311 319 322 322 319 313 315 313 310 309 309 308 304 299 295 289 286 290 295 297 296 296 295 294 295 294 292 290 290 289 nan nan 286 283 280
289 291 316 331 331 319 318 320 329 336 337 338 342 342 342 338 333 332 321 310 309 307 309 315 314 313 310 312 315 320 323 323 322 321 321 317 317 315 310 308 305 303 300 298 298 300 300 300 300 298 297 294 293 292 289 288 287 287 nan 286 nan 286 282
332 332 338 336 334 327 324 328 337 340 340 343 343 345 344 340 329 320 317 314 309 309 318 316 309 311 313 314 316 318 322 323 323 320 320 317 315 311 310 310 308 309 306 307 307 307 305 306 307 307 304 297 293 292 291 288 285 285 286 288 288 nan 283
334 337 331 325 326 322 323 327 332 335 342 343 344 343 343 335 325 317 318 318 321 322 317 312 306 310 305 307 303 312 320 325 321 318 317 317 316 315 315 316 311 312 308 307 306 305 304 305 308 310 306 299 295 292 291 291 288 286 287 288 286 286 285
292 302 316 321 316 313 317 326 330 334 338 342 343 341 341 341 335 336 327 321 324 320 307 309 318 311 310 312 317 316 319 325 322 318 318 317 319 322 321 316 310 306 305 306 306 303 300 300 302 302 301 298 296 294 293 293 293 292 292 289 286 283 282
258 280 300 312 312 312 316 321 325 330 332 334 336 336 339 344 347 343 335 334 329 319 319 327 327 321 317 320 326 327 329 330 329 327 322 320 321 322 319 309 302 299 297 297 296 294 292 293 294 294 293 292 292 292 289 288 290 293 293 291 287 284 280
241 257 282 301 310 316 314 312 316 322 320 322 331 337 342 346 349 351 355 347 325 325 333 345 337 333 327 326 329 339 339 336 332 326 321 321 319 315 308 304 300 293 287 290 288 286 285 289 293 292 290 290 291 293 291 286 289 nan nan nan 290 285 279
237 259 287 295 296 301 306 305 303 307 313 319 327 332 336 340 350 356 2 356 333 345 3 14 4 344 333 334 341 348 343 337 331 323 319 319 317 312 304 301 301 294 289 282 279 280 283 289 296 298 296 294 293 296 295 289 286 291 nan nan 293 289 284
252 268 289 297 286 280 285 292 294 294 307 311 316 323 328 326 333 343 349 355 354 5 12 15 9 350 343 342 344 345 341 342 325 319 320 320 313 306 294 296 299 294 290 287 277 275 279 282 292 300 301 297 296 299 302 296 288 294 nan 303 297 293 291
260 278 295 308 296 284 281 288 296 297 302 304 310 320 318 314 316 326 336 343 348 345 353 357 354 349 343 341 337 336 334 334 321 314 314 307 303 303 297 296 300 297 300 303 291 275 284 296 307 312 309 303 301 304 310 306 295 300 312 309 298 291 289
266 283 295 302 297 292 293 290 291 291 296 298 307 315 313 308 310 312 313 318 317 325 328 339 337 340 338 332 327 321 323 325 312 296 284 290 299 302 297 294 300 308 315 315 308 297 305 321 326 331 330 324 319 319 326 326 317 313 317 314 302 291 286
272 280 286 294 296 290 283 285 295 296 295 296 302 307 307 308 306 301 296 296 298 301 309 318 320 316 328 334 323 309 313 318 314 302 288 289 296 296 292 293 301 308 313 321 nan nan 333 327 330 335 338 339 335 333 337 342 337 328 322 316 306 294 285
280 277 278 281 289 295 297 295 291 290 293 295 295 300 299 299 298 295 291 288 289 299 303 301 306 312 322 314 303 304 311 309 304 304 305 310 305 297 294 300 310 314 317 324 333 338 339 340 nan nan 342 343 336 330 327 328 329 327 321 315 307 297 288
276 283 285 288 292 292 289 287 287 290 292 292 295 299 299 293 294 290 286 285 287 293 300 297 303 312 311 292 288 293 297 294 299 302 296 294 297 298 302 nan 315 319 325 335 341 342 346 nan nan 336 337 339 338 335 329 324 322 318 313 309 305 299 291
245 269 283 291 290 290 290 288 282 284 287 289 294 296 295 291 293 292 289 287 288 291 294 294 300 304 300 295 294 298 298 301 305 304 305 310 315 317 315 314 321 329 333 337 342 nan nan nan nan 335 338 338 337 336 331 326 319 313 312 308 303 300 294
216 248 266 278 275 275 278 279 279 283 288 290 292 292 289 288 287 286 288 285 287 288 291 294 296 300 298 297 299 300 303 307 310 311 315 317 317 317 320 322 325 329 332 333 334 nan nan nan nan nan 330 333 336 336 332 328 323 317 313 312 309 303 298
205 221 240 262 266 264 266 273 279 287 291 291 288 284 280 279 281 283 286 286 287 288 290 295 299 303 302 304 299 302 306 311 313 314 317 316 314 317 323 326 328 328 329 330 333 334 nan nan 334 330 333 333 337 339 335 331 326 322 318 317 316 313 303
209 208 220 237 250 253 259 269 275 275 272 272 273 274 275 274 276 280 281 281 281 282 288 296 304 308 309 308 314 312 313 315 314 313 314 314 316 320 323 326 328 328 328 329 329 328 330 334 331 331 332 333 335 336 334 333 325 323 320 320 314 304 301
213 211 213 221 238 251 254 256 259 258 259 260 264 267 267 267 269 271 274 276 279 283 286 295 300 305 307 312 321 320 319 318 316 315 317 319 320 321 322 324 326 327 327 326 324 324 327 329 331 329 332 331 334 333 329 328 315 316 317 315 313 314 306
216 213 209 217 233 249 255 256 254 255 257 260 263 263 264 265 267 270 274 277 281 282 285 290 294 296 301 311 321 320 319 318 317 317 320 322 323 323 325 325 324 325 324 323 323 322 324 327 328 328 331 332 333 330 327 323 317 319 nan 319 320 314 304
212 208 206 220 238 249 254 256 261 265 261 256 259 262 264 267 269 272 275 279 282 285 287 291 294 298 302 308 313 313 315 315 315 316 318 321 322 323 325 324 323 323 322 320 319 318 318 322 324 325 327 328 326 328 325 321 318 nan 321 323 318 311 297
208 209 211 219 230 247 256 260 261 262 261 261 262 264 266 268 271 274 278 282 284 287 291 293 296 298 300 303 307 309 309 311 312 313 316 316 318 320 320 319 317 317 316 317 317 315 314 318 321 321 322 323 322 325 324 321 320 nan nan 325 318 307 295
211 211 218 222 230 243 253 255 256 259 261 266 269 271 271 274 274 277 282 285 285 287 290 292 294 298 301 303 304 305 304 306 307 308 309 311 313 314 313 312 309 310 310 312 314 314 312 314 318 319 318 319 318 323 326 324 323 nan nan 328 322 311 295
216 222 225 228 235 243 250 252 253 257 258 262 266 266 269 273 276 278 281 284 286 287 289 291 290 295 300 302 302 301 300 303 304 304 306 306 306 306 307 307 305 304 304 307 310 311 310 313 317 315 313 317 320 321 329 330 325 331 nan nan nan 301 284
223 229 231 233 237 241 244 246 249 250 253 256 257 261 265 270 274 277 280 284 287 288 290 292 291 292 295 299 299 300 301 301 302 302 302 302 302 302 302 300 300 302 302 306 309 310 309 310 311 312 311 312 316 317 324 nan 323 322 nan nan nan 297 283
224 230 236 238 239 242 245 247 249 251 252 248 252 258 263 267 272 276 279 283 286 288 290 292 292 292 293 295 297 297 299 300 303 301 299 298 297 298 297 297 297 299 301 304 305 304 306 308 306 306 308 309 nan nan nan nan nan 308 300 nan nan nan 301
230 233 235 237 239 242 249 251 250 251 251 253 256 259 263 267 270 274 278 281 283 286 288 291 292 292 293 295 296 295 296 299 302 300 297 296 294 295 296 296 296 297 299 302 302 303 nan 304 302 303 nan nan nan nan nan 304 291 296 302 304 nan nan nan
233 237 239 241 241 243 247 248 249 249 251 254 259 262 266 270 272 274 277 279 282 283 287 290 292 293 293 294 295 295 296 299 303 302 299 297 297 298 299 297 297 296 297 nan nan 298 299 300 300 303 305 306 310 nan 313 306 299 nan 298 nan nan nan nan
238 241 243 244 245 245 245 242 241 242 243 246 250 256 261 267 270 273 276 279 278 279 281 286 288 290 292 292 293 295 297 299 302 301 300 300 300 300 298 297 296 295 295 nan 295 295 296 297 300 nan nan nan nan 311 307 304 301 299 nan nan nan nan nan
236 239 241 242 243 244 246 245 245 246 248 248 249 251 255 260 267 271 272 274 275 274 274 279 285 288 290 293 293 296 298 299 299 298 297 299 300 299 297 298 297 294 294 295 296 297 298 299 nan 306 nan nan nan 306 305 304 306 306 307 310 309 306 305
234 238 242 243 241 243 247 249 249 250 250 249 250 252 253 259 267 272 272 276 281 278 273 278 285 287 289 291 293 296 298 299 298 296 296 298 297 296 295 296 295 294 296 298 299 300 301 303 nan 306 306 306 305 306 306 305 306 311 314 313 311 309 nan
232 234 237 238 239 243 246 247 247 247 248 248 249 252 255 257 263 269 273 275 280 282 279 278 281 284 286 288 290 294 297 298 295 295 296 295 294 294 294 293 293 294 297 298 299 301 302 304 305 305 305 306 306 306 306 306 306 313 318 316 nan nan nan
230 234 235 237 238 242 244 243 242 241 243 246 249 252 258 263 267 272 274 276 281 283 281 278 278 282 285 286 287 291 294 294 291 294 296 295 293 293 293 293 294 296 298 299 300 303 305 306 306 306 304 304 304 304 303 305 310 312 314 316 316 311 309
231 233 235 237 237 240 243 242 242 243 246 250 253 257 260 265 268 273 277 281 284 286 283 279 279 281 285 286 287 290 291 289 290 293 293 292 289 280 278 284 290 292 295 288 287 289 296 302 306 305 304 302 303 305 305 308 317 317 303 299 295 299 304
234 236 238 239 239 240 242 243 245 247 248 251 255 260 264 267 270 274 278 280 281 282 281 280 281 283 284 285 287 287 287 285 288 290 290 289 288 285 282 276 nan nan nan 287 nan nan nan nan 293 290 292 nan nan 293 303 308 302 297 297 nan nan nan nan
236 238 239 241 242 243 244 244 245 246 247 250 255 261 264 268 271 272 274 276 279 281 282 281 280 281 282 284 285 285 284 285 286 288 288 288 288 289 289 nan nan nan nan nan nan nan nan nan nan 284 nan nan 293 nan 286 nan nan 299 nan nan nan nan nan
nan 237 240 243 244 245 246 244 242 243 249 254 259 262 265 267 268 270 273 276 278 281 281 280 279 279 282 282 279 280 282 283 285 288 289 287 286 287 289 290 290 nan nan nan nan nan nan nan nan nan nan nan 288 298 nan nan nan nan nan nan nan nan nan